Content
SEND FEEDBACK

Daily
Averages
Monthly
Summary
United States of America

BERKELEY - UNIVERSITY OF CALIFORNIA, CALIFORNIA


Home > North America > United States > California
Elevation: 1750 feet     Latitude: 37 52N     Longitude: 122 13W

WEATHER
 
SELECT A DAY
Number of Records: 186,574;   Date Range: 1/1/95 - 10/22/14
 
SHARE

PRINT THIS DATA

[ ← Previous Day ]
WEATHER ALMANAC - JANUARY 23, 2013
[ Next Day → ]
[ °C ]   °F
Weather ElementAverageHighLow
Temperature52.7 °F55.9 °F (5:53 pm)48.2 °F (5:05 am)
Dewpoint49.8 °F55.4 °F (2:21 pm)46.4 °F (8:27 pm)
Humidity90.1 %100 % (5:05 am)74 % (5:53 pm)
Barometer30.05 in30.11 in (10:53 pm)29.98 in (5:05 am)
Wind Speed3.9 mph12.7 mph (3:07 pm)
Wind Gust19.6 mph (2:53 pm)
Weather ElementAverage
Visibility5 mi
Wind DirectionSSE (162.8 °)

Weather ElementTotal
Precipitation0.16 in
Heating Degree Days13 (Base 65)
Growing Degree Days2.1 (Base 50)
Averaged from 29 records on January 23, 2013
WEATHER CONDITIONS BREAKOUT
WIND DIRECTION BREAKOUT
WEATHER BY HOUR - JANUARY 23, 2013
[ °C ]   °F
Local TimeTemperatureDewpointHumidityBarometerVisibilityWind DirectionWind SpeedGust SpeedPrecipitationEventsConditions
1:53 AM50.0 °F48.0 °F93 %30.03 in7.0 miNE (40°)3.5 mphOvercast
2:53 AM51.1 °F48.0 °F89 %30.02 in7.0 miNE (50°)3.5 mphOvercast
3:53 AM51.1 °F48.0 °F89 %30.00 in8.0 miSE (140°)3.5 mphOvercast
4:53 AM50.0 °F48.9 °F96 %30.00 in7.0 miNNE (30°)3.5 mphOvercast
5:05 AM48.2 °F48.2 °F100 %29.98 in7.0 miNE (50°)5.8 mphOvercast
5:53 AM52.0 °F48.9 °F89 %29.98 in7.0 miCalmOvercast
6:53 AM50.0 °F48.0 °F93 %30.00 in7.0 miCalmOvercast
7:53 AM51.1 °F48.9 °F92 %30.01 in6.0 miCalmOvercast
8:53 AM52.0 °F50.0 °F93 %30.03 in6.0 miCalmOvercast
9:53 AM54.0 °F50.0 °F86 %30.04 in6.0 miSSW (210°)4.6 mphOvercast
10:53 AM53.1 °F53.1 °F100 %30.06 in6.0 miWest (260°)3.5 mphOvercast
11:53 AM54.0 °F51.1 °F90 %30.04 in3.0 miNorth (350°)4.6 mph0.00 inRainLight Rain
12:53 PM55.0 °F53.1 °F93 %30.04 in2.5 miWSW (250°)4.6 mph0.01 inRainLight Rain
1:29 PM53.6 °F53.6 °F100 %30.04 in2.5 miCalm0.04 inRainLight Rain
1:53 PM55.0 °F55.0 °F100 %30.03 in2.5 miCalm0.05 inRainLight Rain
2:21 PM55.4 °F55.4 °F100 %30.02 in5.0 miWest (280°)5.8 mph0.00 inRainLight Rain
2:53 PM53.1 °F53.1 °F100 %30.05 in1.5 miWest (280°)9.2 mph19.6 mph0.01 inRainLight Rain
3:07 PM53.6 °F53.6 °F100 %30.05 in3.0 miWest (270°)12.7 mph19.6 mph0.01 inRainLight Rain
3:53 PM53.1 °F47.1 °F80 %30.06 in4.0 miNorth (360°)8.1 mph0.01 inRainLight Rain
4:53 PM54.0 °F47.1 °F78 %30.05 in8.0 miNorth (360°)5.8 mph0.00 inOvercast
5:53 PM55.9 °F47.8 °F74 %30.07 in10.0 miNorth (360°)3.5 mphOvercast
6:53 PM54.0 °F47.1 °F78 %30.08 in5.0 miCalm0.00 inHaze
7:53 PM53.1 °F46.9 °F80 %30.09 in4.0 miCalm0.00 inHaze
8:27 PM53.6 °F46.4 °F77 %30.10 in2.5 miWNW (300°)6.9 mph0.00 inRainLight Rain
8:53 PM53.1 °F46.9 °F80 %30.09 in2.5 miNorth (350°)6.9 mph0.01 inRainLight Rain
8:59 PM51.8 °F51.8 °F100 %30.08 in4.0 miNorth (360°)6.9 mph0.00 inRainLight Rain
9:53 PM53.1 °F47.3 °F81 %30.09 in4.0 miCalm0.00 inRainLight Rain
10:53 PM52.0 °F47.1 °F83 %30.11 in3.0 miNorth (350°)3.5 mph0.01 inRainLight Rain
11:53 PM53.1 °F53.1 °F100 %30.10 in4.0 miENE (70°)5.8 mph0.01 inRainLight Rain
Hourly data recorded from KOAK, located miles away from Berkeley - University of California, California







STORIES FROM OUR PARTNERS